Location: Beloeil
(45.5670°N, 73.2000°W)
Time: 20:39:47
(UTC-04:00)

Daily predictions for brighter satellites

Satellite Brightness Start Highest point End
(mag) Time Altitude Azimuth Time Altitude Azimuth Time Altitude Azimuth
Cosmos 2184 Rocket 4.0 20:50:48 10° S 20:56:53 67° E 21:03:01 10° NNE
Meteor 2-3 Rocket 3.9 20:52:24 10° SSW 20:58:02 79° W 21:03:39 10° N
H-2A R/B 4.1 20:56:23 10° E 20:59:00 14° NE 21:01:36 10° NNE
Cosmos 1356 Rocket 3.4 20:56:00 10° S 21:00:13 77° E 21:04:32 10° NNE
Cosmos 1733 Rocket 3.1 20:55:58 10° S 21:00:18 61° E 21:04:39 10° NNE
Cosmos 2263 Rocket 3.4 20:55:43 10° SW 21:01:13 50° WNW 21:06:43 10° NNE
Cosmos 407 Rocket 3.7 20:56:57 10° NNW 21:02:10 59° ENE 21:07:23 10° SE
SL-8 R/B 3.8 20:58:19 10° SW 21:03:02 55° SSE 21:07:44 10° ENE
BREEZE-M DEB (TANK) 4.4 20:42:14 10° WNW 21:03:14 82° NNE 21:07:55 10° ESE
YAOGAN 11 4.5 20:59:05 10° S 21:03:36 73° WSW 21:08:11 10° NNW
Meteor 1-27 Rocket 4.1 21:00:58 10° N 21:06:24 48° ENE 21:11:42 10° SSE
Meteor 2-10 Rocket 4.1 21:02:40 10° NNW 21:08:31 75° W 21:14:11 10° S
ERS-1 Rocket 3.1 21:05:14 10° S 21:10:16 79° WSW 21:15:21 10° NNW
Cosmos 1452 Rocket 4.3 21:06:56 10° SSE 21:11:34 32° E 21:16:13 10° NE
Cosmos 1340 Rocket 3.9 21:09:27 10° SSW 21:13:20 50° WNW 21:17:17 10° N
SPOT 1/Viking Rocket 4.5 21:09:04 10° SE 21:13:42 34° ENE 21:18:21 10° N
Cosmos 909 Rocket 4.4 21:08:13 10° SSW 21:14:47 82° ESE 21:22:50 10° NE
Cosmos 1190 Rocket 4.0 21:09:34 10° NNW 21:14:48 90° ENE 21:20:01 10° SSE
CZ-4 DEB 4.4 21:14:03 10° SSW 21:16:58 34° W 21:19:55 10° NNW
Cosmos 1782 2.8 21:14:25 10° N 21:18:28 89° ENE 21:22:30 10° S
USA 234 4.4 21:16:57 10° E 21:21:13 18° ESE 21:25:26 10° SSE
Cosmos 1606 2.8 21:20:26 10° N 21:24:21 61° E 21:28:14 10° SSE
Cosmos 1939 Rocket 3.1 21:21:10 10° S 21:25:00 69° W 21:28:56 10° NNW
H-2A R/B 2.1 21:22:23 10° SSE 21:26:43 81° WSW 21:30:59 10° NNW
CZ-4B R/B 4.3 21:24:29 10° NE 21:28:51 30° E 21:33:05 10° SSE
Cosmos 2074 Rocket 4.4 21:24:04 10° SSW 21:30:19 69° W 21:36:35 10° N
Cosmos 1892 4.1 21:29:45 10° SSW 21:33:24 41° WNW 21:37:05 10° N
Nadezhda 3 Rocket 4.1 21:36:49 10° N 21:43:13 86° E 21:49:36 10° S
Cosmos 676 Rocket 4.0 21:39:45 10° NNW 21:44:59 83° WSW 21:49:43 13° SSE
Cosmos 1184 Rocket 3.2 21:45:10 15° SSE 21:47:41 45° E 21:50:54 10° NNE
CENTAUR R/B 4.2 21:41:55 10° NW 21:48:58 37° WSW 21:56:21 10° S
Okean 2 Rocket 3.4 21:45:31 13° SSE 21:49:14 45° E 21:53:27 10° NNE
Cosmos 2056 Rocket 4.3 21:45:17 10° SW 21:50:20 54° WNW 21:55:22 10° NNE
Cosmos 1174 3.5 21:47:16 10° NW 21:50:34 61° WSW 21:52:27 20° SSE
Cosmos 1954 Rocket 4.0 21:46:00 10° NNW 21:51:14 88° ENE 21:55:29 16° SSE
MetOp-B 4.2 21:46:46 10° SSE 21:52:04 83° WSW 21:57:27 10° NNW
Sich 1 Rocket 4.2 21:51:27 10° SSW 21:55:59 61° W 22:00:32 10° N
Cosmos 1741 Rocket 4.3 21:56:17 10° NNW 22:01:27 55° ENE 22:04:49 21° SE
CZ-4 SHROUD 3.9 21:59:35 15° S 22:01:57 51° W 22:04:59 10° NNW
USA 229 DEB 4.3 21:56:18 10° NNW 22:03:11 51° NE 22:08:49 16° ESE
USA 229 4.3 21:56:24 10° NNW 22:03:17 50° NE 22:08:55 16° ESE
ATLAS 5 CENTAUR R/B 3.9 21:59:43 10° WNW 22:04:48 28° WSW 22:10:07 10° S
Intercosmos 25 3.2 22:02:34 20° SSE 22:04:48 51° E 22:07:54 10° NNE
ARGOS 3.1 22:01:07 17° SSE 22:05:20 80° ENE 22:10:43 10° NNW
Cosmos 2341 Rocket 4.0 21:59:19 10° S 22:05:39 89° E 22:11:57 10° N
COS B Rocket 4.2 22:01:48 10° N 22:05:54 49° W 22:09:38 10° SSW
Cosmos 1782 Rocket 3.5 22:04:18 10° S 22:08:45 88° E 22:13:15 10° N
Okean 3 3.8 22:07:23 10° NNW 22:11:39 64° W 22:14:59 16° S
Landsat 7 4.0 22:09:27 23° SE 22:12:16 56° ENE 22:16:57 10° N
Meteor 1-14 Rocket 4.5 22:08:16 18° SSE 22:12:21 51° E 22:17:45 10° NNE
COSMOS 2487 2.9 22:10:18 10° NNW 22:13:53 60° WSW 22:15:53 24° S
Meteor 2-13 Rocket 4.4 22:08:01 10° S 22:14:09 78° E 22:20:20 10° NNE
DNEPR-1 R/B 3.9 22:09:00 10° NW 22:14:38 84° NE 22:17:21 26° SE
Timation 2 Rocket 3.8 22:09:51 10° NNW 22:15:54 85° ENE 22:19:47 23° SSE
Cosmos 1238 Rocket 3.5 22:14:38 10° NNW 22:17:35 39° W 22:20:10 15° SSW
APEX 3.8 22:17:23 26° SSE 22:19:15 44° ESE 22:24:01 10° NE
Cosmos 2278 Rocket 2.2 22:15:06 10° SSW 22:20:47 86° ESE 22:26:30 10° NNE
Cosmos 1833 Rocket 3.2 22:15:58 10° NNW 22:21:25 47° ENE 22:24:36 23° ESE
Cosmos 1975 Rocket 3.5 22:17:57 10° NNW 22:22:13 59° W 22:25:16 18° S
SPOT 5 4.3 22:18:08 10° SSW 22:22:59 37° W 22:27:57 10° NNW
Cosmos 1844 4.2 22:18:48 10° SW 22:24:31 63° WNW 22:30:18 10° NNE
Cosmos 1825 3.3 22:22:00 10° SSW 22:25:38 43° WNW 22:29:20 10° N
CARTOSAT-1 3.8 22:24:39 30° SE 22:26:31 55° ENE 22:30:45 10° N
SL-8 Rocket 4.0 22:21:27 14° S 22:26:54 79° E 22:33:09 10° N
ISS -2.1 22:24:11 10° SW 22:25:57 27° SSW 22:25:57 27° SSW
Terra 2.0 22:25:43 28° SE 22:28:01 57° ENE 22:32:42 10° N
Cosmos 1844 Rocket 3.9 22:23:57 10° SW 22:29:21 44° WNW 22:34:45 10° NNE
Spot 4 4.3 22:29:22 28° SE 22:31:33 48° ENE 22:36:14 10° N
YAOGAN 6 4.3 22:29:22 13° SSW 22:31:53 27° W 22:34:57 10° NW
Cosmos 1408 4.2 22:30:33 10° SW 22:33:54 33° WNW 22:37:16 10° N
Cosmos 1536 Rocket 3.7 22:30:34 10° N 22:35:02 61° ENE 22:36:45 35° SE
Cosmos 1420 Rocket 4.0 22:31:44 10° SSW 22:36:59 88° WNW 22:42:15 10° NNE
H-2A R/B 2.1 22:34:39 28° SSE 22:37:37 82° ENE 22:42:58 10° NNW
ASTEX 1 4.2 22:33:12 10° NNE 22:37:44 35° E 22:39:07 30° ESE
Cosmos 2082 Rocket 2.2 22:32:40 10° NNW 22:38:24 78° ENE 22:41:15 31° SE
Meteor 2-8 Rocket 4.5 22:32:16 10° N 22:38:25 70° E 22:41:45 29° SSE
Cosmos 1812 3.3 22:36:04 10° N 22:39:46 41° ENE 22:40:32 36° ESE
Cosmos 1242 Rocket 3.7 22:38:46 10° NNW 22:42:11 39° W 22:43:56 23° SSW
SL-8 R/B 4.0 22:40:47 10° W 22:45:35 67° N 22:50:24 10° ENE
Gbstr 26 Del rocket 4.0 22:40:52 10° WNW 22:45:51 48° NNE 22:48:52 18° E
Cosmos 614 Rocket 4.1 22:45:10 10° NNW 22:50:13 64° WSW 22:52:31 32° S
CZ-4C R/B 3.6 22:49:12 36° SSW 22:50:34 60° W 22:54:36 10° NNW
Cosmos 2084 4.0 22:48:12 10° SW 22:51:58 52° NW 22:55:44 10° NNE
Cosmos 2297 3.6 22:48:47 16° SSW 22:53:26 82° ESE 22:59:13 10° NNE
Cosmos 2151 Rocket 3.6 22:52:35 31° SSW 22:54:43 83° W 22:59:18 10° N
Cosmos 1140 Rocket 4.5 22:50:47 10° NW 22:55:31 38° WSW 22:58:17 21° SSW
Cosmos 864 Rocket 4.4 22:54:36 24° S 22:58:32 88° W 23:04:45 10° N
USA 234 3.1 22:58:29 10° NE 23:05:01 68° SE 23:11:30 10° SW
Cosmos 2366 rocket 4.1 23:01:48 21° SSW 23:06:11 74° W 23:12:33 10° N
Cosmos 1400 Rocket 4.4 23:10:16 23° E 23:10:16 23° E 23:13:06 10° NE
SAR-Lupe-2 3.5 23:11:18 69° SSW 23:11:35 75° WSW 23:15:10 10° NNW
ALOS 2 4.3 23:11:59 19° E 23:13:01 20° ENE 23:16:15 10° NNE
Spot 2 3.9 23:10:15 10° NNE 23:14:41 76° ESE 23:15:27 58° S
Cosmos 1025 Rocket 3.8 23:17:18 10° N 23:21:26 38° ENE 23:21:53 37° E
Okean 1-7 Rocket 3.5 23:18:26 10° N 23:22:59 79° E 23:23:41 62° SSE
Okean 1 Rocket 3.0 23:22:47 61° SSE 23:23:26 73° E 23:27:55 10° NNE
Cosmos 1300 Rocket 3.5 23:23:42 60° S 23:24:30 86° E 23:28:58 10° N
DMSP B5D2-2 4.4 23:21:16 10° N 23:26:24 61° WNW 23:29:16 26° SW
BREEZE-M DEB (TANK) 3.1 23:25:03 10° WNW 23:27:25 46° N 23:33:00 10° E
Okean 1 3.6 23:26:08 10° NNW 23:30:09 59° W 23:30:38 54° SW
Cosmos 2369 Rocket 3.5 23:31:03 24° E 23:31:03 24° E 23:35:11 10° NE
Meteor 1-20 Rocket 4.5 23:33:05 31° SSW 23:35:44 65° WNW 23:41:15 10° N
Cosmos 1000 Rocket 4.4 23:35:39 10° N 23:41:55 86° W 23:44:01 45° S
CZ-2C R/B 4.4 23:44:33 10° NE 23:47:49 16° E 23:47:52 16° E
Cosmos 1544 Rocket 4.4 23:49:29 36° E 23:49:29 36° E 23:53:05 10° NNE
Cosmos 2239 Rocket 4.4 23:47:42 46° S 23:49:44 82° E 23:56:05 10° N
Cosmos 1503 Rocket 4.3 23:45:40 10° NNW 23:50:51 59° ENE 23:51:57 48° ESE
